When you browse on this site, cookies collect data to enhance your experience and personalize the content and advertising you see.
Visit our Privacy Policy to learn more. By continuing to use the site, you agree to this use of cookies and data.
  • In Deutschland
  • Länderverzeichnis
  • Für 7 Tage
  • Wassertemperatur
  • Satellitenkarten
  • Wetterkarte
  • Widgets
  • user-avatar
    Anmelden

    Stündliche Wetter Mössingen

    Heute, 10 Dezember, Montag

    Zeit Temperatur Niederschläge Wind Luftdruck Luftfeuchtigkeit
    00:00 +2°C° 0.3 mm 6 m/S 715 mmHg 87%
    01:00 +2°C° 0 mm 6 m/S 715 mmHg 86%
    02:00 +2°C° 0.2 mm 6 m/S 716 mmHg 86%
    03:00 +1°C° 0.2 mm 6 m/S 716 mmHg 86%
    04:00 +1°C° 0.2 mm 6 m/S 717 mmHg 86%
    05:00 +1°C° 0.2 mm 6 m/S 717 mmHg 86%
    06:00 +1°C° 0.2 mm 6 m/S 718 mmHg 86%
    07:00 0°C° 0 mm 4 m/S 718 mmHg 86%
    08:00 +1°C° 0.2 mm 5 m/S 718 mmHg 86%
    09:00 +1°C° 0.2 mm 5 m/S 719 mmHg 85%
    10:00 +1°C° 0.2 mm 5 m/S 719 mmHg 85%
    11:00 +1°C° 0.1 mm 5 m/S 719 mmHg 83%
    12:00 +1°C° 0.1 mm 6 m/S 719 mmHg 82%
    13:00 +2°C° 0.1 mm 6 m/S 719 mmHg 80%
    14:00 +1°C° 0.1 mm 5 m/S 719 mmHg 81%
    15:00 +1°C° 0.1 mm 5 m/S 719 mmHg 82%
    16:00 +1°C° 0.1 mm 5 m/S 719 mmHg 83%
    17:00 +1°C° 0.3 mm 5 m/S 719 mmHg 83%
    18:00 +1°C° 0.3 mm 5 m/S 719 mmHg 84%
    19:00 +1°C° 0.3 mm 6 m/S 719 mmHg 85%
    20:00 0°C° 0.6 mm 5 m/S 719 mmHg 85%
    21:00 0°C° 0.6 mm 5 m/S 719 mmHg 86%
    22:00 0°C° 0.6 mm 5 m/S 719 mmHg 87%
    23:00 -1°C° 0.1 mm 4 m/S 719 mmHg 88%

    Morgen, 11 Dezember, Dienstag

    Zeit Temperatur Niederschläge Wind Luftdruck Luftfeuchtigkeit
    00:00 -1°C° 0.1 mm 4 m/S 719 mmHg 89%
    01:00 -1°C° 0.1 mm 3 m/S 719 mmHg 90%
    02:00 -1°C° 0 mm 3 m/S 719 mmHg 91%
    03:00 -1°C° 0 mm 3 m/S 719 mmHg 92%
    04:00 -1°C° 0 mm 3 m/S 720 mmHg 92%
    05:00 -1°C° 0 mm 3 m/S 720 mmHg 92%
    06:00 -1°C° 0 mm 3 m/S 720 mmHg 92%
    07:00 -1°C° 0 mm 3 m/S 720 mmHg 92%
    08:00 -1°C° 0.1 mm 3 m/S 720 mmHg 91%
    09:00 -1°C° 0.1 mm 3 m/S 720 mmHg 89%
    10:00 -1°C° 0.1 mm 4 m/S 720 mmHg 87%
    11:00 -1°C° 0.1 mm 4 m/S 720 mmHg 85%
    12:00 0°C° 0.1 mm 4 m/S 720 mmHg 83%
    13:00 0°C° 0.1 mm 4 m/S 720 mmHg 81%
    14:00 +1°C° 0.1 mm 3 m/S 719 mmHg 83%
    15:00 +1°C° 0.1 mm 3 m/S 719 mmHg 84%
    16:00 0°C° 0.1 mm 3 m/S 719 mmHg 86%
    17:00 +1°C° 0 mm 2 m/S 719 mmHg 88%
    18:00 -1°C° 0 mm 2 m/S 719 mmHg 89%
    19:00 -2°C° 0 mm 2 m/S 719 mmHg 91%
    20:00 -2°C° 0 mm 2 m/S 719 mmHg 91%
    21:00 0°C° 0 mm 1 m/S 719 mmHg 91%
    22:00 0°C° 0 mm 1 m/S 719 mmHg 91%
    23:00 -1°C° 0 mm 1 m/S 719 mmHg 92%

    übermorgen, 12 Dezember, Mittwoch

    Zeit Temperatur Niederschläge Wind Luftdruck Luftfeuchtigkeit
    00:00 -1°C° 0 mm 1 m/S 719 mmHg 92%
    01:00 -1°C° 0 mm 1 m/S 719 mmHg 92%
    02:00 -1°C° 0 mm 1 m/S 718 mmHg 92%
    03:00 -2°C° 0 mm 0 m/S 718 mmHg 92%
    04:00 -2°C° 0 mm 0 m/S 718 mmHg 93%
    05:00 -3°C° 0 mm 0 m/S 718 mmHg 92%
    06:00 -3°C° 0 mm 0 m/S 718 mmHg 92%
    07:00 -3°C° 0 mm 0 m/S 718 mmHg 92%
    08:00 -2°C° 0 mm 0 m/S 718 mmHg 90%
    09:00 -1°C° 0 mm 0 m/S 718 mmHg 87%
    10:00 0°C° 0 mm 0 m/S 718 mmHg 85%
    11:00 +1°C° 0 mm 1 m/S 717 mmHg 83%
    12:00 +2°C° 0 mm 1 m/S 717 mmHg 82%
    13:00 +2°C° 0 mm 2 m/S 716 mmHg 80%
    14:00 +1°C° 0 mm 2 m/S 716 mmHg 82%
    15:00 +1°C° 0 mm 2 m/S 716 mmHg 84%
    16:00 +1°C° 0 mm 2 m/S 716 mmHg 86%
    17:00 -1°C° 0 mm 2 m/S 716 mmHg 88%
    18:00 -1°C° 0 mm 2 m/S 716 mmHg 90%
    19:00 -2°C° 0 mm 2 m/S 716 mmHg 92%
    20:00 -2°C° 0 mm 2 m/S 716 mmHg 93%
    21:00 -3°C° 0 mm 2 m/S 716 mmHg 93%
    22:00 -3°C° 0 mm 2 m/S 716 mmHg 93%
    23:00 -3°C° 0 mm 2 m/S 716 mmHg 93%

    13 Dezember, Donnerstag

    Zeit Temperatur Niederschläge Wind Luftdruck Luftfeuchtigkeit
    00:00 -4°C° 0 mm 2 m/S 715 mmHg 94%
    01:00 -2°C° 0 mm 1 m/S 715 mmHg 94%
    02:00 -2°C° 0 mm 1 m/S 715 mmHg 94%
    03:00 -2°C° 0 mm 1 m/S 714 mmHg 94%
    04:00 -2°C° 0 mm 1 m/S 714 mmHg 94%
    05:00 -4°C° 0 mm 2 m/S 714 mmHg 93%
    06:00 -4°C° 0 mm 2 m/S 713 mmHg 92%
    07:00 -5°C° 0 mm 2 m/S 713 mmHg 92%
    08:00 -4°C° 0 mm 2 m/S 713 mmHg 89%
    09:00 -5°C° 0 mm 3 m/S 712 mmHg 86%
    10:00 -4°C° 0 mm 3 m/S 712 mmHg 83%
    11:00 -4°C° 0 mm 3 m/S 712 mmHg 79%
    12:00 -2°C° 0 mm 3 m/S 711 mmHg 75%
    13:00 -1°C° 0 mm 3 m/S 711 mmHg 72%
    14:00 -2°C° 0 mm 3 m/S 711 mmHg 74%
    15:00 -2°C° 0 mm 3 m/S 710 mmHg 77%
    16:00 -4°C° 0 mm 3 m/S 710 mmHg 80%
    17:00 -3°C° 0 mm 2 m/S 710 mmHg 83%
    18:00 -4°C° 0 mm 2 m/S 710 mmHg 85%
    19:00 -5°C° 0 mm 2 m/S 710 mmHg 88%
    20:00 -5°C° 0 mm 2 m/S 711 mmHg 88%
    21:00 -5°C° 0 mm 2 m/S 711 mmHg 89%
    22:00 -5°C° 0 mm 2 m/S 711 mmHg 89%
    23:00 -5°C° 0 mm 2 m/S 711 mmHg 88%

    14 Dezember, Freitag

    Zeit Temperatur Niederschläge Wind Luftdruck Luftfeuchtigkeit
    00:00 -5°C° 0 mm 2 m/S 711 mmHg 87%
    01:00 -3°C° 0 mm 1 m/S 711 mmHg 87%
    02:00 -2°C° 0 mm 1 m/S 712 mmHg 86%
    03:00 -2°C° 0 mm 1 m/S 712 mmHg 85%
    04:00 -2°C° 0 mm 1 m/S 712 mmHg 84%
    05:00 -2°C° 0 mm 1 m/S 713 mmHg 83%
    06:00 -1°C° 0 mm 1 m/S 713 mmHg 83%
    07:00 -1°C° 0 mm 1 m/S 713 mmHg 82%
    08:00 -1°C° 0 mm 1 m/S 714 mmHg 81%
    09:00 0°C° 0 mm 1 m/S 715 mmHg 79%
    10:00 0°C° 0 mm 1 m/S 715 mmHg 78%
    11:00 +1°C° 0 mm 1 m/S 716 mmHg 76%
    12:00 +2°C° 0 mm 1 m/S 716 mmHg 74%
    13:00 +3°C° 0 mm 1 m/S 717 mmHg 72%
    14:00 +2°C° 0 mm 1 m/S 717 mmHg 75%
    15:00 +1°C° 0 mm 0 m/S 718 mmHg 79%
    16:00 0°C° 0 mm 0 m/S 718 mmHg 83%
    17:00 +1°C° 0 mm 1 m/S 719 mmHg 85%
    18:00 0°C° 0 mm 1 m/S 719 mmHg 87%
    19:00 0°C° 0 mm 1 m/S 720 mmHg 89%
    20:00 0°C° 0 mm 1 m/S 720 mmHg 89%
    21:00 -1°C° 0 mm 1 m/S 721 mmHg 90%
    22:00 -1°C° 0 mm 1 m/S 721 mmHg 90%
    23:00 -1°C° 0 mm 1 m/S 721 mmHg 91%

    15 Dezember, Samstag

    Zeit Temperatur Niederschläge Wind Luftdruck Luftfeuchtigkeit
    00:00 0°C° 0 mm 1 m/S 721 mmHg 91%
    01:00 0°C° 0 mm 1 m/S 722 mmHg 91%
    02:00 0°C° 0 mm 1 m/S 722 mmHg 91%
    03:00 0°C° 0 mm 1 m/S 722 mmHg 91%
    04:00 0°C° 0 mm 1 m/S 723 mmHg 91%
    05:00 0°C° 0 mm 1 m/S 723 mmHg 91%
    06:00 0°C° 0 mm 1 m/S 723 mmHg 90%
    07:00 -2°C° 0 mm 2 m/S 723 mmHg 90%
    08:00 -1°C° 0 mm 2 m/S 723 mmHg 89%
    09:00 +1°C° 0 mm 2 m/S 723 mmHg 87%
    10:00 +1°C° 0 mm 2 m/S 723 mmHg 85%
    11:00 +3°C° 0 mm 1 m/S 723 mmHg 82%
    12:00 +4°C° 0 mm 1 m/S 722 mmHg 79%
    13:00 +6°C° 0 mm 1 m/S 722 mmHg 77%
    14:00 +5°C° 0 mm 1 m/S 722 mmHg 80%
    15:00 +4°C° 0 mm 1 m/S 722 mmHg 83%
    16:00 +3°C° 0 mm 1 m/S 722 mmHg 87%
    17:00 +3°C° 0 mm 1 m/S 722 mmHg 87%
    18:00 +2°C° 0 mm 1 m/S 722 mmHg 87%
    19:00 +2°C° 0 mm 1 m/S 722 mmHg 88%
    20:00 +2°C° 0 mm 1 m/S 722 mmHg 87%
    21:00 +2°C° 0 mm 1 m/S 722 mmHg 85%
    22:00 +2°C° 0 mm 1 m/S 722 mmHg 84%
    23:00 +2°C° 0.1 mm 1 m/S 722 mmHg 84%
    Mehr zeigen